When you browse on this site, cookies collect data to enhance your experience and personalize the content and advertising you see.
Visit our Privacy Policy to learn more. By continuing to use the site, you agree to this use of cookies and data.

Meteo orario Tonton

Oggi, 13 Agosto, Giovedi

Tempo Temperatura Precipitazioni Vento Pressione Umidità
00:00 +20°C° 0 mm 2 m/s 757 mm Hg 93%
01:00 +21°C° 0.1 mm 1 m/s 756 mm Hg 93%
02:00 +21°C° 0.1 mm 1 m/s 756 mm Hg 94%
03:00 +21°C° 0.1 mm 1 m/s 756 mm Hg 94%
04:00 +21°C° 0.2 mm 1 m/s 756 mm Hg 94%
05:00 +21°C° 0.2 mm 1 m/s 756 mm Hg 93%
06:00 +21°C° 0.2 mm 1 m/s 756 mm Hg 93%
07:00 +22°C° 0.1 mm 1 m/s 756 mm Hg 89%
08:00 +23°C° 0.1 mm 1 m/s 757 mm Hg 85%
09:00 +24°C° 0.1 mm 1 m/s 757 mm Hg 81%
10:00 +25°C° 0 mm 2 m/s 757 mm Hg 77%
11:00 +26°C° 0 mm 2 m/s 757 mm Hg 73%
12:00 +27°C° 0 mm 2 m/s 757 mm Hg 70%
13:00 +27°C° 0.5 mm 2 m/s 757 mm Hg 70%
14:00 +27°C° 0.5 mm 2 m/s 756 mm Hg 70%
15:00 +27°C° 0.5 mm 2 m/s 756 mm Hg 71%
16:00 +26°C° 2 mm 2 m/s 756 mm Hg 76%
17:00 +25°C° 2 mm 2 m/s 756 mm Hg 81%
18:00 +24°C° 2 mm 2 m/s 756 mm Hg 86%
19:00 +24°C° 1.3 mm 2 m/s 756 mm Hg 89%
20:00 +23°C° 1.3 mm 2 m/s 757 mm Hg 91%
21:00 +21°C° 1.3 mm 2 m/s 757 mm Hg 93%
22:00 +21°C° 0.6 mm 2 m/s 757 mm Hg 94%
23:00 +20°C° 0.6 mm 2 m/s 757 mm Hg 95%

Domani, 14 Agosto, Venerdi

Tempo Temperatura Precipitazioni Vento Pressione Umidità
00:00 +20°C° 0.6 mm 2 m/s 757 mm Hg 96%
01:00 +20°C° 0.6 mm 2 m/s 757 mm Hg 96%
02:00 +20°C° 0.6 mm 2 m/s 757 mm Hg 96%
03:00 +20°C° 0.6 mm 2 m/s 757 mm Hg 97%
04:00 +20°C° 0.1 mm 2 m/s 757 mm Hg 97%
05:00 +19°C° 0.1 mm 2 m/s 757 mm Hg 96%
06:00 +19°C° 0.1 mm 2 m/s 757 mm Hg 96%
07:00 +19°C° 0.1 mm 2 m/s 757 mm Hg 95%
08:00 +20°C° 0.1 mm 2 m/s 757 mm Hg 94%
09:00 +20°C° 0.1 mm 2 m/s 758 mm Hg 93%
10:00 +20°C° 0.4 mm 2 m/s 758 mm Hg 92%
11:00 +20°C° 0.4 mm 2 m/s 758 mm Hg 92%
12:00 +20°C° 0.4 mm 2 m/s 758 mm Hg 92%
13:00 +20°C° 0.6 mm 2 m/s 758 mm Hg 92%
14:00 +20°C° 0.6 mm 2 m/s 758 mm Hg 93%
15:00 +20°C° 0.6 mm 2 m/s 759 mm Hg 93%
16:00 +20°C° 0.5 mm 2 m/s 759 mm Hg 94%
17:00 +20°C° 0.5 mm 2 m/s 758 mm Hg 94%
18:00 +19°C° 0.5 mm 2 m/s 758 mm Hg 95%
19:00 +19°C° 0.2 mm 3 m/s 759 mm Hg 95%
20:00 +19°C° 0.2 mm 3 m/s 759 mm Hg 96%
21:00 +18°C° 0.2 mm 3 m/s 759 mm Hg 97%
22:00 +18°C° 0.1 mm 3 m/s 759 mm Hg 97%
23:00 +18°C° 0.1 mm 3 m/s 759 mm Hg 97%

Dopodomani, 15 Agosto, Sabato

Tempo Temperatura Precipitazioni Vento Pressione Umidità
00:00 +17°C° 0.1 mm 3 m/s 759 mm Hg 96%
01:00 +17°C° 0 mm 3 m/s 759 mm Hg 96%
02:00 +17°C° 0 mm 3 m/s 759 mm Hg 96%
03:00 +17°C° 0 mm 2 m/s 759 mm Hg 96%
04:00 +17°C° 0 mm 2 m/s 759 mm Hg 95%
05:00 +17°C° 0 mm 2 m/s 759 mm Hg 95%
06:00 +17°C° 0 mm 2 m/s 758 mm Hg 94%
07:00 +18°C° 0 mm 2 m/s 759 mm Hg 92%
08:00 +19°C° 0 mm 2 m/s 759 mm Hg 90%
09:00 +19°C° 0 mm 2 m/s 759 mm Hg 87%
10:00 +20°C° 0 mm 2 m/s 759 mm Hg 85%
11:00 +21°C° 0 mm 2 m/s 759 mm Hg 83%
12:00 +21°C° 0 mm 2 m/s 759 mm Hg 81%
13:00 +23°C° 0 mm 2 m/s 759 mm Hg 79%
14:00 +23°C° 0 mm 2 m/s 759 mm Hg 78%
15:00 +23°C° 0 mm 2 m/s 758 mm Hg 76%
16:00 +23°C° 0 mm 2 m/s 758 mm Hg 78%
17:00 +21°C° 0 mm 2 m/s 758 mm Hg 80%
18:00 +21°C° 0 mm 2 m/s 758 mm Hg 81%
19:00 +20°C° 0 mm 2 m/s 758 mm Hg 85%
20:00 +18°C° 0 mm 2 m/s 758 mm Hg 88%
21:00 +17°C° 0 mm 2 m/s 758 mm Hg 92%
22:00 +17°C° 0 mm 2 m/s 758 mm Hg 92%
23:00 +17°C° 0 mm 2 m/s 757 mm Hg 92%

16 Agosto, Domenica

Tempo Temperatura Precipitazioni Vento Pressione Umidità
00:00 +16°C° 0 mm 2 m/s 757 mm Hg 92%
01:00 +16°C° 0 mm 1 m/s 757 mm Hg 92%
02:00 +16°C° 0 mm 1 m/s 756 mm Hg 92%
03:00 +16°C° 0 mm 1 m/s 756 mm Hg 92%
04:00 +16°C° 0.1 mm 1 m/s 756 mm Hg 93%
05:00 +16°C° 0.1 mm 1 m/s 756 mm Hg 94%
06:00 +16°C° 0.1 mm 0 m/s 756 mm Hg 94%
07:00 +19°C° 0 mm 1 m/s 756 mm Hg 89%
08:00 +21°C° 0 mm 1 m/s 756 mm Hg 84%
09:00 +23°C° 0 mm 1 m/s 756 mm Hg 78%
10:00 +23°C° 1 mm 1 m/s 756 mm Hg 77%
11:00 +23°C° 1 mm 2 m/s 756 mm Hg 76%
12:00 +24°C° 1 mm 2 m/s 756 mm Hg 74%
13:00 +24°C° 1 mm 2 m/s 755 mm Hg 75%
14:00 +24°C° 1 mm 3 m/s 755 mm Hg 76%
15:00 +22°C° 1 mm 3 m/s 755 mm Hg 77%
16:00 +22°C° 0.4 mm 3 m/s 755 mm Hg 80%
17:00 +21°C° 0.4 mm 3 m/s 755 mm Hg 83%
18:00 +20°C° 0.4 mm 3 m/s 755 mm Hg 86%
19:00 +19°C° 0 mm 3 m/s 755 mm Hg 88%
20:00 +18°C° 0 mm 3 m/s 755 mm Hg 90%
21:00 +17°C° 0 mm 2 m/s 755 mm Hg 92%
22:00 +16°C° 0 mm 2 m/s 755 mm Hg 92%
23:00 +16°C° 0 mm 2 m/s 755 mm Hg 92%

17 Agosto, Lunedi

Tempo Temperatura Precipitazioni Vento Pressione Umidità
00:00 +15°C° 0 mm 2 m/s 754 mm Hg 92%
01:00 +15°C° 0 mm 2 m/s 754 mm Hg 93%
02:00 +15°C° 0 mm 2 m/s 754 mm Hg 94%
03:00 +15°C° 0 mm 2 m/s 754 mm Hg 94%
04:00 +15°C° 0 mm 2 m/s 754 mm Hg 95%
05:00 +15°C° 0 mm 2 m/s 754 mm Hg 97%
06:00 +16°C° 0 mm 2 m/s 753 mm Hg 98%
07:00 +17°C° 0.1 mm 3 m/s 754 mm Hg 92%
08:00 +19°C° 0.1 mm 4 m/s 754 mm Hg 87%
09:00 +20°C° 0.1 mm 5 m/s 754 mm Hg 82%
10:00 +20°C° 0.4 mm 5 m/s 754 mm Hg 79%
11:00 +21°C° 0.4 mm 6 m/s 753 mm Hg 77%
12:00 +21°C° 0.4 mm 6 m/s 753 mm Hg 74%
13:00 +21°C° 0.3 mm 6 m/s 753 mm Hg 74%
14:00 +21°C° 0.3 mm 5 m/s 753 mm Hg 75%
15:00 +21°C° 0.3 mm 5 m/s 753 mm Hg 75%
16:00 +21°C° 0.4 mm 5 m/s 753 mm Hg 78%
17:00 +20°C° 0.4 mm 4 m/s 753 mm Hg 81%
18:00 +20°C° 0.4 mm 4 m/s 753 mm Hg 84%
19:00 +18°C° 0.1 mm 4 m/s 753 mm Hg 88%
20:00 +17°C° 0.1 mm 4 m/s 754 mm Hg 91%
21:00 +15°C° 0.1 mm 4 m/s 754 mm Hg 94%
22:00 +14°C° 0 mm 4 m/s 754 mm Hg 94%
23:00 +14°C° 0 mm 4 m/s 754 mm Hg 95%

18 Agosto, Martedi

Tempo Temperatura Precipitazioni Vento Pressione Umidità
00:00 +14°C° 0 mm 3 m/s 754 mm Hg 95%
01:00 +13°C° 0 mm 3 m/s 754 mm Hg 95%
02:00 +13°C° 0 mm 3 m/s 754 mm Hg 95%
03:00 +13°C° 0 mm 3 m/s 754 mm Hg 95%
04:00 +14°C° 0 mm 3 m/s 755 mm Hg 96%
05:00 +14°C° 0 mm 4 m/s 755 mm Hg 96%
06:00 +15°C° 0 mm 4 m/s 755 mm Hg 97%
07:00 +16°C° 0.1 mm 5 m/s 755 mm Hg 93%
08:00 +17°C° 0.1 mm 5 m/s 755 mm Hg 89%
09:00 +20°C° 0.1 mm 6 m/s 756 mm Hg 84%
10:00 +20°C° 0.3 mm 5 m/s 756 mm Hg 80%
11:00 +21°C° 0.3 mm 5 m/s 756 mm Hg 76%
12:00 +21°C° 0.3 mm 5 m/s 756 mm Hg 71%
13:00 +21°C° 0.1 mm 5 m/s 756 mm Hg 70%
14:00 +21°C° 0.1 mm 5 m/s 757 mm Hg 68%
15:00 +21°C° 0.1 mm 5 m/s 757 mm Hg 67%
16:00 +20°C° 0 mm 4 m/s 757 mm Hg 69%
17:00 +19°C° 0 mm 4 m/s 757 mm Hg 72%
18:00 +18°C° 0 mm 3 m/s 757 mm Hg 75%
19:00 +17°C° 0 mm 2 m/s 757 mm Hg 78%
20:00 +15°C° 0 mm 2 m/s 756 mm Hg 82%
21:00 +14°C° 0 mm 1 m/s 756 mm Hg 86%
22:00 +14°C° 0 mm 1 m/s 756 mm Hg 86%
23:00 +14°C° 0 mm 1 m/s 755 mm Hg 87%
Mostrare altro